Home > Time Zones > World Clock > Weather > Cuba > Havana > Past weeks

Flag for Cuba Weather past 2 weeks in Havana, Cuba

Now
72 °F

Clear.


Feels Like: 69 °F
Forecast: 79 / 90 °F
Wind: 2 mph from Southwest

Location: Aeropuerto Jose Marti - Rancho-Boyeros - Habana

Current Time: Sep 20, 2014 at 6:11:13 AM

Latest Report: Sep 20, 2014 at 4:55 AM


Visibility: 5 mi

Pressure: 29.92 "Hg

Humidity: 88%

Dew point: 68 °F

Location of HavanaLocation

Historic Weather in Havana — Graph

°F

Havana temperature yesterday

Maximum temperature yesterday: 88 °F (at 1:55 PM)
Minimum temperature yesterday: 70 °F (at 4:55 AM)
Average temperature yesterday: 78 °F

Past Weeks' High & Low Weather Summary

 TemperatureHumidityPressure
High90 °F (Sep 5, 12:55 PM)94% (Sep 9, 7:55 AM)30.12 "Hg (Sep 9, 7:55 AM)
Low68 °F (Sep 14, 5:55 AM)46% (Sep 11, 3:55 PM)29.92 "Hg (Sep 6, 4:55 PM)
Average78 °F78%30.00 "Hg
* Reported Sep 5 4:55 AM — Sep 20 4:55 AM, Havana, Weather by CustomWeather, © 2014

Note: Actual official high and low records may vary slightly from our data, if they occured in-between our weather recording intervals... More about our weather records

Advertising

Havana weather history for previous 24 hours

 ConditionsComfort  
Time TempWeatherWind HumidityBarometerVisibility
4:55 AM
Sep 20
72 °FClear.2 mph88%29.92 "Hg5 mi
3:55 AM72 °FClear.1 mph88%29.95 "Hg5 mi
2:55 AM72 °FClear.No wind88%29.95 "Hg5 mi
1:55 AM72 °FClear.2 mph88%29.95 "Hg6 mi
12:55 AM73 °FClear.1 mph89%29.98 "Hg6 mi
11:55 PM
Sep 19
73 °FClear.1 mph89%29.98 "Hg6 mi
10:55 PM75 °FClear.1 mph83%29.98 "Hg6 mi
9:55 PM75 °FPassing clouds.1 mph83%29.98 "Hg6 mi
8:55 PM77 °FPassing clouds.1 mph83%29.95 "Hg6 mi
7:55 PM79 °FPartly sunny.3 mph74%29.95 "Hg6 mi
6:55 PM82 °FScattered clouds.6 mph70%29.95 "Hg6 mi
5:55 PM86 °FPartly sunny.5 mph62%29.92 "Hg6 mi
4:55 PM86 °FScattered clouds.9 mph62%29.92 "Hg6 mi
3:55 PM88 °FScattered clouds.5 mph59%29.92 "Hg6 mi
2:55 PM86 °FScattered clouds.6 mph62%29.92 "Hg6 mi
1:55 PM88 °FBroken clouds.6 mph52%29.95 "Hg6 mi
12:55 PM86 °FBroken clouds.5 mph59%29.98 "Hg6 mi
11:55 AM86 °FPassing clouds.6 mph59%29.98 "Hg6 mi
10:55 AM84 °FPartly sunny.5 mph62%29.98 "Hg6 mi
9:55 AM79 °FPartly sunny.2 mph79%29.98 "Hg6 mi
8:55 AM73 °FPartly sunny.1 mph89%29.98 "Hg6 mi
7:55 AM72 °FPassing clouds.No wind88%29.95 "Hg6 mi
6:55 AM70 °FPassing clouds.2 mph94%29.95 "Hg4 mi
Weather by CustomWeather, © 2014

See weather overviewHow to use our weather pages